Regional Weather Roundup
Issued by NWS Sioux Falls, SD

Home | Current Version | Previous Version | Text Only | Print | Product List | Glossary On
Versions: 1 2 3 4 5 6 7 8 9 10 11 12 13 14 15 16 17 18 19 20 21 22 23 24 25 26 27 28 29 30 31 32 33 34 35 36 37 38 39 40 41 42 43 44 45 46 47 48 49 50
000
ASUS43 KFSD 230402
RWRFSD

WEATHER ROUNDUP FOR SE SOUTH DAKOTA/SW MINNESOTA/NW IOWA
NATIONAL WEATHER SERVICE SIOUX FALLS SD
1100 PM CDT THU JUN 22 2017

NOTE: "FAIR" INDICATES FEW OR NO CLOUDS BELOW 12,000 FEET WITH NO
SIGNIFICANT WEATHER AND OR OBSTRUCTIONS TO VISIBILITY.


SDZ038>040-050-052>070-230500-
SOUTHEAST SOUTH DAKOTA

CITY           SKY/WX    TMP DP  RH WIND       PRES   REMARKS
BROOKINGS      CLEAR     60  53  77 SW5       29.85S
CHAMBERLAIN    CLEAR     65  51  62 W5        29.89R
HURON          CLEAR     65  54  67 SW9       29.85R
MADISON        FAIR      59  52  77 NW6       29.87R
MITCHELL       CLEAR     65  53  65 SW5       29.86R
SIOUX FALLS    CLEAR     60  52  74 NW5       29.84S
WINNER         FAIR      66  45  46 CALM      29.92R
YANKTON        CLEAR     63  53  70 NW6       29.87R
$$

MNZ071-072-080-081-089-090-097-098-230500-
SOUTHWEST MINNESOTA

CITY           SKY/WX    TMP DP  RH WIND       PRES   REMARKS
FAIRMONT       CLOUDY    63  57  81 NW8       29.79R
JACKSON        CLOUDY    61  55  82 CALM      29.82R
LUVERNE        CLEAR     59  50  72 CALM      29.85R
MARSHALL       CLEAR     60  54  80 W7        29.81S
MONTEVIDEO     CLEAR     63  55  77 W5        29.79S
PIPESTONE      CLEAR     63  48  59 CALM      29.85R
REDWOOD FALLS  CLEAR     62  55  77 SW6       29.79R
TRACY          CLEAR     62  55  79 SW6       29.82S
WINDOM         CLEAR     59  55  88 NW7       29.82R
WORTHINGTON    CLEAR     59  54  83 NW7       29.84R
$$

IAZ001>003-012>014-020>022-031-032-NEZ013-014-SDZ071-230500-
NORTHWEST IOWA

CITY           SKY/WX    TMP DP  RH WIND       PRES   REMARKS
CHEROKEE       PTCLDY    67  58  71 N9        29.81R
DENISON        CLOUDY    72  61  68 NE15G21   29.80R
ESTHERVILLE    PTCLDY    61  57  87 N7        29.80R
LE MARS        PTCLDY    66  55  68 N8        29.83R
ORANGE CITY    CLEAR     64  55  72 N10       29.83R
SHELDON        CLOUDY    63  55  77 N9        29.82R
SIOUX CITY       N/A    N/A N/A N/A MISG      29.81R
SPENCER        CLEAR     64  57  78 N9        29.81R
STORM LAKE     MOCLDY    66  61  82 N10       29.81R
$$

ABBREVIATIONS USED IN REMARKS
   TC - TEMPERATURE IN CELSIUS
  WCI - WIND CHILL INDEX
   HX - HEAT INDEX
  VSB - VISIBILITY





USA.gov is the U.S. government's official web portal to all federal, state and local government web resources and services.